Torna al catalogo

DELTA 1 DEB

AttivoSSO
NORAD 21333·DEBRIS·🇺🇸 United States

Lanciato Jun 12, 1975 da Vandenberg Space Force Base

Loading…

Prossimi Passaggi (prossime 24 ore)

TLE

AggiornatoSource: Space-Track

Epoca: Sep 14, 2026, 05:27 UTC

1 21333U 75052BB  26257.22717681  .00000009  00000-0  89246-4 0  9999
2 21333  99.8136  50.3077 0002879 268.7230 267.3668 13.45499405736127

Traccia DELTA 1 DEB in tempo reale con AllMySat

Download on the App Store